www.pogodaiklimat.ru

Погода и климат >> Архив погоды >> Мексика >> Пуэрто-Анхель


ПОГОДА в Пуэрто-Анхеле

  • Прогноз погоды в Пуэрто-Анхеле
  • Монитор погоды в Пуэрто-Анхеле

АРХИВ ПОГОДЫ в Пуэрто-Анхеле

Время (UTC), дата Ветер
(напр.,м/с)
 
Видим.   Явления Облачность Т
(С)
Тd
(С)
f
(%)
Тe
(С)
Тes
(С)
Комфортность P
(гПа)
Po
(гПа)
Тmin
(С)
Tmax
(С)
R
(мм)
R24
(мм)
S
(см)
18 14.05 ЮЗ 2 30 км ясно +30.6 +23.8 67 +42 +64 опасность
перегрева
1013.5 1008.6 +23.0 +32.4
21 14.05 ЮЗ 3 30 км 10/0
[Cs]
+31.0 +23.7 65 +42 +52 опасность
перегрева
1012.0 1007.1
00 15.05 З 3 30 км ясно +29.6 +23.3 69 +40 +41 очень
душно
1012.0 1007.1 +23.0 +32.4
03 15.05 СЗ 4 20 км 6/0
[Cs]
+27.4 +24.4 84 +39 +39 очень
душно
1012.8 1007.9
06 15.05 СЗ 3 20 км 4/0
[Cs]
+26.4 +23.7 85 +36 +36 очень
душно
1013.0 1008.1 +32.4
09 15.05 С 2 20 км 3/0
[Cs]
+24.2 +22.0 88 +31 +31 очень
душно
1011.4 1006.4
12 15.05 С 2 20 км ясно +23.6 +20.7 84 +29 +29 душно 1011.2 1006.2 +22.6 +32.4
15 15.05 В 2 30 км ясно +28.6 +22.2 68 +37 +47 очень
душно
1013.2 1008.3
18 15.05 ЮВ 2 30 км ясно +31.6 +25.5 70 +46 +68 опасность
перегрева
1013.0 1008.0 +22.6 +32.6
21 15.05 ЮЗ 3 30 км ясно +32.4 +24.9 65 +46 +58 опасность
перегрева
1011.8 1006.9
00 16.05 З 3 30 км ясно +30.6 +23.5 66 +41 +42 опасность
перегрева
1010.8 1005.9 +22.6 +33.6
15 16.05 В 2 30 км 8/1 600 м
[Cu med, cong Ac As Cs]
+29.8 +24.7 74 +42 +48 опасность
перегрева
1013.4 1008.5
18 16.05 ЮВ 2 30 км 8/1 600 м
[Cu med, cong Ac As Cs]
+31.8 +26.3 73 +48 +60 опасность
перегрева
1013.9 1009.0 +22.4 +32.0
21 16.05 Ю 2 30 км 6/1 600 м
[Cu med, cong Cs]
+32.2 +26.4 72 +49 +60 опасность
перегрева
1012.5 1007.6
00 17.05 Ю 4 30 км 10/1 600 м
[Cu med, cong Ac As Cs]
+30.6 +25.3 73 +44 +45 опасность
перегрева
1011.7 1006.9 +22.4 +34.0
03 17.05 З 3 20 км 6/0
[Cs]
+28.6 +24.8 80 +41 +41 опасность
перегрева
1011.6 1006.8
06 17.05 СЗ 3 20 км 8/0
[Cs]
+28.2 +25.2 84 +41 +41 опасность
перегрева
1013.1 1008.2 +34.0
09 17.05 СЗ 2 20 км 8/0
[Cs]
+27.8 +24.6 83 +39 +39 очень
душно
1011.7 1006.8
12 17.05 Ю 2 20 км 9/3 750 м
[Cb cap Cs]
+27.4 +22.7 76 +36 +36 очень
душно
1012.3 1007.4 +25.0 +34.0
15 17.05 Ю 2 30 км 6/1 600 м
[Cu med, cong Cs]
+29.4 +23.7 71 +40 +48 очень
душно
1012.5 1007.6
18 17.05 ЮВ 4 30 км 5/1 600 м
[Cu med, cong Cs]
+32.6 +23.9 60 +44 +56 опасность
перегрева
1013.0 1008.1 +25.0 +32.8
21 17.05 Ю 3 30 км 5/1 600 м
[Cu med, cong Ac As Cs]
+32.2 +24.1 62 +44 +52 опасность
перегрева
1011.3 1006.4
00 18.05 Ю 4 30 км 10/1 600 м
[Cu med, cong Ac As Cs]
+30.2 +24.5 72 +43 +43 опасность
перегрева
1010.4 1005.5 +25.0 +33.6
12 18.05 СЗ 2 30 км 3/0
[Cs]
+26.0 +21.8 78 +33 +33 очень
душно
1010.1 1005.2 +25.4 +33.6
15 18.05 Ю 2 30 км ясно +29.4 +23.7 71 +40 +50 очень
душно
1010.8 1005.9
21 18.05 ЮЗ 5 30 км 8/1 600 м
[Cu med, cong Ac As Cs]
+30.8 +25.5 73 +45 +49 опасность
перегрева
1010.1 1005.3
00 19.05 ЮЗ 4 30 км 8/1 600 м
[Cu med, cong Ac As Cs]
+30.0 +25.5 77 +44 +44 опасность
перегрева
1009.5 1004.6 +25.4 +33.8
03 19.05 З 2 20 км 10/8 600 м
[Cb cap Ci ing]
+28.4 +25.5 84 +42 +42 опасность
перегрева
1011.5 1006.7
06 19.05 СЗ 4 20 км 10/8 600 м
[Cb cap Ci ing]
+28.0 +24.5 81 +39 +39 очень
душно
1012.1 1007.2 +33.8
12 20.05 С 1 30 км ясно +26.4 +23.7 85 +36 +36 очень
душно
1011.5 1006.6 +25.4 +34.0
15 20.05 ЮЗ 2 30 км 1/1 600 м
[Cu med, cong]
+30.4 +23.0 65 +41 +49 опасность
перегрева
1011.8 1006.9
18 20.05 ЮЗ 3 30 км 1/1 600 м
[Cu med, cong]
+32.6 +25.1 65 +47 +63 опасность
перегрева
1011.6 1006.7 +25.4 +34.0
21 20.05 ЮВ 2 30 км 6/1 600 м
[Cu med, cong Ac As Cs]
+32.0 +25.0 67 +46 +55 опасность
перегрева
1010.7 1005.8
00 21.05 З 3 30 км 6/1 600 м
[Cu med, cong Ac As Cs]
+31.0 +24.8 70 +44 +45 опасность
перегрева
1009.8 1005.0 +25.4 +34.0
03 21.05 С 2 30 км ясно +29.6 +24.8 75 +42 +42 опасность
перегрева
1010.2 1005.4
06 21.05 З 2 30 км ясно +27.4 +23.9 81 +38 +38 очень
душно
1011.4 1006.6 +34.0
09 21.05 С 3 30 км ясно +27.4 +24.1 82 +38 +38 очень
душно
1010.4 1005.6
12 21.05 С 2 30 км ясно +26.6 +23.6 84 +36 +36 очень
душно
1010.7 1005.8 +25.6 +34.0
15 21.05 ЮЗ 3 30 км ясно +30.0 +23.1 67 +40 +48 очень
душно
1009.7 1004.8

 

Местоположение метеостанции Пуэрто-Анхель (Мексика): широта 15.68 долгота -96.48 высота над уровнем моря 46 м.

В архиве по умолчанию представлена погода в Пуэрто-Анхеле за последнюю неделю. Архивные данные за месяц целиком и за предыдущие месяцы, начиная с января 2011 года, Вы можете получить, выбрав интересующий диапазон дат из раскрывающегося списка и нажав кнопку "Ввод!".


*Определитесь, кто Вы:
робот инопланетянин человек

Внимание! Время в таблицах - всемирное. Для получения местного времени необходимо прибавить поправку, которая равна -6 ч.

Смотрите также архив погоды в соседних городах и на ближайших метеорологических станциях:

Погода в Салина-Крусе (Мексика) (149 км)
Погода в Оахаке (Мексика) (154 км)
Погода в Уахуапан-де-Леоне (Мексика) (273 км)
Погода в Арриаге (Мексика) (283 км)
Погода в Коацакоалькосе (Мексика) (350 км)
Погода в Оризабе (Мексика) (359 км)
Погода в Кордове (Мексика) (361 км)
Погода в Тустла-Гутьерресе (Мексика) (377 км)
Погода в Чильпансинго (Мексика) (383 км)
Погода в Веракрусе (Мексика) (388 км)

Пояснения к столбцам:

Ветер - указаны скорость ветра в м/с - средняя за 10 мин, порывы в срок и между сроками (в фигурных скобках) и направление, откуда дует ветер: С - северный, СВ - северо-восточный, В - восточный, ЮВ - юго-восточный, Ю - южный, ЮЗ - юго-западный, З - западный, СЗ - северо-западный.
Видимость - горизонтальная дальность видимости в метрах или километрах. При видимости от 1 до 10 км при отсутствии осадков обычно наблюдается дымка, при ухудшении видимости до 1 км и менее - туман. В сухую погоду видимость может ухудшаться дымом, пылью или мглою.
Явления - указаны атмосферные явления, наблюдавшиеся в срок или в последний час перед сроком; фигурными скобками обозначены явления, наблюдавшиеся между сроками (за 1-3 часа до срока); квадратными скобками обозначены град или гололедные отложения с указанием их диаметра в мм.
Облачность - указаны через наклонную черту общая и нижняя облачность в баллах и высота нижней границы облаков в метрах; квадратными скобками обозначены формы облаков: Ci - перистые, Cs - перисто-слоистые, Cc - перисто-кучевые, Ac - высококучевые, As - высокослоистые, Sc - слоисто-кучевые, Ns - слоисто-дождевые, Cu - кучевые, Cb - кучево-дождевые. Подробнее классификацию облаков см. в Атласе облаков (PDF).
T - Температура воздуха - температура, измеренная на высоте 2 м над землей.
Td - Температура точки росы - температура, при понижении до которой содержащийся в воздухе водяной пар достигнет насыщения.
f - Относительная влажность воздуха - влажноcть воздуха, измеренная на высоте 2 м над землей.
Te - Эффективная температура - температура, которую ощущает одетый по сезону человек в тени. Характеристика душности погоды. При расчете учитывается влияние влажности воздуха и скорости ветра на теплоощущения человека.
Tes - Эффективная температура на солнце - температура, которую ощущает человек, с поправкой на солнечный нагрев. Характеристика знойности погоды. Зависит от высоты солнца над горизонтом, облачности и скорости ветра. Ночью, в пасмурную погоду, а также при ветре 12 м/с и более поправка равна нулю.
P - Атмосферное давление - приведенное к уровню моря атмосферное давление.
Po - Атмосферное давление - измеренное на уровне метеостанции атмосферное давление.
Tmin - Минимальная температура - минимум температуры воздуха на высоте 2 м над землей.
Tmax - Максимальная температура - максимум температуры воздуха на высоте 2 м над землей.
R - Количество осадков - Количество выпавших осадков за период времени, мм. При наведении курсора мыши на число - период времени, за который выпало указанное количество осадков.
R24 - Количество осадков - Количество выпавших осадков за 24 часа, мм.
S - Снежный покров - Высота снежного покрова, см. При наведении курсора мыши на число - состояние снежного покрова и степень покрытия местности в баллах.